Theta_e
329 330 332 334 334 336 337 335 339 339 336 334 336 344 344 342 342 342 341 341 340 338 336 333 332 332 331 330 331 323 311 315 320 319 319 319 321 321 321 321 321 320 316 312
328 329 332 333 336 336 333 334 333 334 336 333 337 342 343 341 341 341 341 341 342 340 337 335 333 332 332 331 332 329 313 310 315 320 320 322 322 322 321 321 321 319 319 318
328 329 331 332 333 334 334 334 334 340 337 337 337 337 345 341 340 340 341 341 341 339 338 337 334 334 333 333 332 331 318 312 313 321 319 323 323 323 322 321 320 319 320 319
328 329 330 332 335 334 335 334 335 335 340 341 339 338 345 342 341 340 339 340 339 339 340 339 336 335 334 334 333 331 325 314 312 314 318 321 322 322 323 322 320 320 320 319
328 329 331 332 336 335 334 335 335 336 338 339 340 338 344 341 342 339 339 340 340 339 340 340 337 336 335 334 333 329 326 318 314 312 313 318 319 321 322 319 322 319 320 319
327 330 331 332 333 332 334 338 339 337 338 341 340 339 344 342 342 340 340 340 340 339 340 340 338 336 336 335 333 328 327 323 317 314 315 315 313 317 319 321 321 319 319 320
329 329 330 334 334 333 333 335 337 337 345 346 340 341 339 336 334 333 340 341 339 339 339 340 338 336 336 335 331 328 327 324 321 318 318 319 314 321 322 324 322 319 319 320
328 331 335 335 334 333 335 335 335 338 341 337 339 342 339 334 334 334 335 341 338 336 339 339 338 336 335 333 332 329 327 324 323 321 320 320 317 317 321 322 321 318 319 320
329 332 335 335 333 334 336 334 335 338 336 337 336 341 335 335 336 335 335 335 337 336 338 337 335 335 334 334 333 331 328 325 323 322 320 320 320 319 317 318 319 319 318 318
330 337 335 335 335 334 333 334 338 337 337 339 338 339 336 336 338 335 336 335 336 337 338 337 336 335 335 334 333 332 328 324 323 323 321 321 322 321 321 321 320 320 320 318
332 334 337 334 335 335 334 339 338 339 336 340 342 336 335 334 334 334 333 335 335 333 338 338 337 336 335 333 333 332 328 325 324 323 323 322 321 321 320 321 321 321 320 320
335 333 335 336 335 334 335 336 336 340 339 337 338 336 337 334 334 335 335 335 335 335 337 338 337 336 334 334 332 332 329 327 323 324 323 323 322 321 322 322 322 321 322 320
338 341 340 333 334 335 335 333 335 337 339 337 338 337 336 337 336 334 332 335 334 334 335 336 337 336 335 333 333 332 330 326 323 322 322 322 322 322 322 323 323 322 322 320
338 337 338 338 335 332 332 335 336 336 337 336 335 336 340 339 335 334 333 335 332 329 333 332 335 336 335 333 333 331 329 326 324 323 322 321 321 321 322 322 322 321 320 319
335 337 338 335 334 333 334 335 334 337 338 336 333 339 339 339 335 335 333 332 332 331 330 330 335 336 334 333 333 331 330 326 324 323 321 322 321 322 322 322 321 320 319 318
337 337 339 338 336 336 335 334 333 334 334 333 335 337 336 337 335 333 331 331 332 333 334 335 335 335 334 334 333 332 331 330 329 326 323 322 322 322 322 322 321 320 320 319
345 340 344 342 339 336 335 334 335 334 333 335 336 337 336 336 334 332 331 331 333 333 337 337 336 334 334 333 333 332 331 330 329 327 324 322 322 322 322 321 321 321 320 319
342 346 341 340 337 337 334 333 334 337 339 336 337 337 334 334 333 332 331 331 329 332 337 337 336 335 334 333 333 332 331 330 328 325 323 322 321 321 321 321 321 321 320 319
337 338 337 338 338 337 340 337 339 336 341 337 337 337 337 334 331 333 331 329 331 331 334 336 336 336 335 333 332 331 331 329 326 323 322 322 321 320 320 321 321 321 320 319
342 338 340 340 342 340 340 338 334 334 335 334 334 337 339 336 332 333 334 333 333 334 335 335 334 334 332 332 331 329 328 325 323 323 322 321 320 320 321 321 320 320 322 324
342 337 335 337 338 339 337 335 334 338 338 330 331 337 337 334 334 334 335 334 333 332 333 333 332 332 332 329 328 326 325 325 324 323 322 322 322 322 322 323 324 325 326 326
340 343 342 340 338 337 335 336 335 336 333 331 333 337 336 336 333 335 336 334 333 330 330 330 332 330 329 326 327 327 327 327 327 327 326 325 327 328 328 328 328 327 325 322
339 339 340 340 336 335 338 336 338 337 342 342 337 336 332 331 332 335 335 334 333 330 329 330 330 330 328 327 326 325 323 325 330 329 328 327 328 328 328 323 318 316 317 316
334 335 339 337 336 340 338 336 334 335 334 338 335 332 331 331 331 331 335 335 333 331 329 329 331 330 328 328 327 327 328 329 329 328 328 329 327 323 319 315 314 315 315 315
336 334 334 337 335 336 331 331 331 334 329 338 333 330 330 331 331 333 335 335 333 332 329 329 330 329 329 328 329 328 328 326 324 321 316 313 313 312 312 313 314 314 312 313
333 338 338 341 330 335 332 331 332 337 334 332 330 330 330 330 332 333 334 334 333 332 332 332 331 330 329 327 326 323 316 308 307 310 314 312 311 312 313 313 312 311 311 311
Wind_Speed
18 2 10 12 12 3 8 9 13 15 12 2 2 8 19 26 24 21 25 29 26 28 25 21 18 10 2 4 9 11 9 4 4 3 5 3 3 5 5 11 12 18 19 18
6 12 21 2 11 10 2 3 5 7 4 5 7 3 16 25 23 20 32 27 25 24 30 25 20 11 6 4 7 9 9 4 2 3 6 6 5 3 4 9 11 16 16 19
5 12 5 2 6 7 3 3 6 11 5 4 5 9 18 17 22 24 23 23 24 33 32 26 24 17 11 8 7 7 7 4 4 3 3 4 5 1 3 5 10 13 13 17
9 17 8 11 6 3 2 2 5 17 7 4 5 5 2 13 14 19 27 28 24 32 31 26 26 22 15 14 7 7 7 6 2 4 5 9 5 4 1 5 5 7 10 12
16 11 8 5 1 1 3 8 13 9 5 3 1 3 14 20 8 11 22 30 32 35 35 31 31 24 18 16 10 6 5 6 3 2 4 4 4 7 5 4 3 5 6 9
12 28 4 2 6 5 4 6 4 4 4 3 6 6 5 6 11 11 18 28 33 35 34 32 29 27 23 19 13 7 4 7 5 3 0 1 1 4 6 3 1 2 7 9
11 13 5 5 6 6 7 7 4 5 1 5 2 5 9 11 6 6 16 28 24 32 34 32 34 32 29 23 13 8 7 5 6 4 2 3 1 3 1 3 6 7 3 9
4 12 5 9 5 7 2 6 5 4 3 5 3 3 4 8 11 16 10 24 22 23 32 34 36 33 30 19 15 10 9 7 7 5 4 6 3 3 5 6 10 5 6 6
4 5 4 4 6 11 1 5 5 2 4 4 3 5 7 17 19 11 10 2 26 24 32 35 33 32 24 18 19 13 13 9 7 6 8 7 5 4 5 5 4 6 8 9
9 2 3 3 7 5 7 2 11 8 4 4 6 3 5 7 13 11 7 11 4 28 37 35 34 31 26 19 20 17 13 10 8 9 7 6 6 8 7 10 9 8 10 13
9 6 1 5 2 2 7 4 4 4 3 0 2 6 6 7 6 6 8 2 21 42 37 39 36 31 27 20 20 19 16 10 9 9 8 8 9 11 10 11 12 11 12 13
5 4 3 8 3 6 6 9 8 4 4 3 2 6 6 5 9 5 10 15 26 43 15 26 33 34 28 21 21 20 15 6 5 9 9 10 11 12 12 11 12 13 15 15
3 3 4 8 5 2 4 5 6 5 4 4 4 5 3 1 6 7 26 29 31 40 26 32 33 30 26 23 19 19 13 8 8 9 10 11 13 12 12 13 14 16 16 16
4 2 5 5 8 6 7 5 5 7 4 4 6 4 5 3 7 18 13 11 10 11 9 12 15 24 26 22 22 18 13 6 4 8 9 10 12 13 16 16 17 16 16 16
4 1 3 6 8 15 4 1 13 9 8 7 7 6 8 6 6 14 11 4 6 19 4 25 32 35 26 22 22 16 11 11 9 8 8 9 12 14 14 16 18 17 16 16
1 2 4 7 10 14 3 6 8 3 7 3 7 8 9 16 21 13 11 12 8 12 20 21 14 23 22 23 19 16 13 10 8 9 8 10 10 12 16 18 19 18 19 19
3 2 2 6 9 10 7 14 8 6 7 5 6 9 21 12 15 17 9 5 8 14 16 12 13 14 17 14 14 11 7 5 8 10 11 7 9 12 16 18 20 21 21 23
1 2 1 5 6 6 6 3 4 11 12 13 8 7 16 19 14 13 11 13 13 13 14 14 15 14 16 14 6 4 1 5 8 10 10 10 9 10 14 18 21 23 24 26
8 4 0 1 4 7 7 9 6 4 3 8 11 9 19 21 19 14 11 13 11 8 9 9 8 10 12 10 6 4 2 4 8 11 12 13 13 15 17 21 24 27 27 29
6 7 4 2 3 7 2 2 14 2 3 12 7 12 13 14 4 2 8 7 8 8 9 7 9 10 11 8 2 2 4 6 9 10 11 13 15 17 21 24 26 25 29 34
4 3 1 2 1 2 3 4 1 4 7 7 19 7 8 4 7 13 10 7 6 9 10 7 8 11 9 6 6 8 10 11 12 12 13 15 17 20 22 25 26 29 34 35
3 1 1 3 2 6 7 2 4 6 6 19 14 8 10 4 8 15 14 11 9 7 12 7 7 10 9 8 9 7 6 7 13 13 13 20 20 22 24 25 27 27 27 27
1 2 3 5 6 12 9 19 22 21 24 27 7 13 13 11 15 5 12 12 12 11 8 10 6 9 9 5 4 9 13 11 12 18 20 21 21 21 20 20 20 25 25 27
6 5 2 7 8 22 18 6 6 5 29 21 7 6 10 16 11 11 5 10 12 10 9 10 14 16 13 8 4 9 16 10 13 17 19 18 19 20 21 23 20 23 25 27
6 5 2 6 11 25 31 16 4 15 19 15 7 9 9 9 10 11 15 11 14 14 17 15 17 16 11 5 9 9 9 12 15 16 17 16 19 21 20 22 22 21 23 25
2 5 4 4 12 23 15 4 14 16 17 16 11 12 13 9 10 8 14 14 17 18 16 16 15 11 9 8 8 10 10 12 13 14 15 21 16 21 20 18 19 22 22 21
Wind_Direction
280 101 253 218 212 230 173 195 189 213 230 188 333 163 174 178 205 196 182 194 203 196 194 172 191 223 263 349 358 9 30 91 97 162 185 171 178 34 343 342 345 355 8 15
311 238 233 188 201 201 23 40 288 323 196 95 21 196 185 181 200 200 176 198 206 194 179 177 189 203 232 298 322 354 11 49 141 127 93 122 101 60 7 343 348 348 5 11
278 278 321 30 74 68 267 272 54 71 16 66 14 326 167 194 193 198 191 200 200 183 179 180 189 194 218 228 287 327 353 23 99 153 119 145 125 186 325 315 335 358 347 359
279 309 306 95 114 132 253 208 84 43 56 307 31 309 338 173 198 202 198 198 195 186 186 188 187 189 207 223 251 301 336 352 67 209 143 172 160 186 91 302 352 351 321 343
278 305 354 9 75 147 233 74 99 94 121 79 108 114 336 334 219 208 198 200 202 191 190 189 187 192 198 213 240 279 319 338 359 174 205 226 216 215 243 53 43 0 337 332
280 296 262 273 5 349 67 105 33 65 99 19 235 121 238 213 235 227 201 206 205 192 191 189 191 188 196 204 231 254 304 321 343 346 266 280 67 108 155 79 8 165 356 337
287 285 314 49 348 349 45 48 352 1 336 243 99 61 234 269 247 30 190 198 201 188 190 186 189 184 188 199 217 238 268 301 321 323 309 301 295 131 168 240 271 271 237 331
302 317 12 359 342 277 112 147 147 240 312 262 189 216 229 280 46 33 360 199 182 174 185 186 186 184 184 198 216 231 247 268 294 296 286 286 292 228 257 273 295 247 262 302
250 274 223 280 230 317 106 24 178 151 311 16 156 307 300 63 64 63 306 353 184 188 184 177 180 184 190 202 218 232 230 245 268 285 284 292 295 325 265 311 316 334 330 300
252 178 201 293 306 45 111 36 21 350 357 315 333 298 250 134 168 219 241 258 199 206 182 184 188 184 198 203 215 225 222 241 265 274 295 301 301 309 311 315 326 320 322 332
201 163 192 111 253 66 25 42 84 191 215 158 275 265 231 190 171 156 44 59 20 356 179 184 179 186 188 198 217 216 212 228 250 281 292 286 286 298 297 296 309 309 314 317
348 142 156 207 179 114 143 177 156 161 255 206 195 293 23 112 123 95 344 45 15 14 303 171 183 185 191 201 211 215 210 225 271 280 276 282 293 310 320 320 317 304 303 310
326 7 18 343 22 301 202 228 115 109 63 224 133 261 30 111 72 70 38 15 5 11 17 339 180 189 189 192 209 213 211 197 214 252 271 292 299 302 312 314 315 307 305 305
60 77 142 205 253 264 299 219 155 155 128 198 223 217 247 273 81 75 56 5 21 336 339 353 247 225 194 190 193 198 196 199 215 243 272 271 283 294 305 308 307 303 306 306
98 110 335 306 314 303 322 168 267 193 166 177 276 160 222 154 148 117 130 24 98 148 182 244 224 212 188 190 194 197 197 201 224 265 274 272 285 295 299 307 315 315 315 311
130 270 347 313 296 310 327 258 300 345 95 193 49 52 100 126 145 149 188 191 165 211 252 252 228 194 194 187 195 196 209 230 275 302 286 276 285 293 301 308 318 317 315 315
142 176 49 289 313 322 341 353 334 66 43 61 56 118 137 144 143 146 148 110 63 54 48 63 135 159 169 180 181 197 223 272 308 314 321 290 298 296 301 305 310 313 315 315
194 10 102 266 340 326 236 152 270 73 42 23 42 94 127 130 134 134 117 110 83 76 83 91 109 115 129 156 161 160 211 317 317 322 328 331 314 300 296 296 300 305 308 311
184 140 115 127 276 274 21 5 332 109 9 9 359 4 140 124 107 99 90 89 92 80 87 98 100 113 127 119 132 151 220 313 324 324 321 319 313 302 295 295 300 304 309 310
93 95 121 13 304 283 247 282 288 197 340 316 309 321 62 68 78 212 101 96 98 92 98 92 83 96 107 115 123 10 18 348 339 330 319 312 307 304 304 306 311 312 313 314
19 350 134 109 164 266 249 219 18 72 239 236 247 285 93 111 159 151 162 155 128 117 117 103 80 94 91 89 70 43 20 3 337 326 323 326 319 313 311 309 313 318 322 325
120 93 297 9 111 294 209 276 179 316 257 227 248 76 142 127 175 178 178 174 151 119 130 132 109 92 88 73 81 59 11 10 343 325 319 321 322 330 332 327 325 328 338 348
338 169 201 179 214 249 214 39 30 12 2 308 135 53 67 58 64 167 201 177 162 145 142 150 118 97 115 133 153 355 359 330 339 315 317 328 327 333 341 343 352 354 356 351
209 154 23 16 1 33 100 118 56 91 62 339 69 105 97 70 53 37 76 176 154 155 151 121 130 138 147 168 201 328 341 313 332 320 332 340 335 331 334 342 6 3 7 17
60 75 332 279 28 60 27 18 31 107 147 177 166 103 90 89 75 81 93 110 133 130 132 124 119 116 109 53 355 354 338 328 324 334 336 342 346 355 20 15 11 13 8 9
113 193 172 230 111 112 168 195 228 232 167 139 137 112 93 110 93 96 97 102 122 121 110 101 90 64 40 35 21 6 1 354 347 4 7 359 21 21 19 18 359 5 17 22